SCOUT A DEB

基本信息
目录编号:
5036
目录名称:
SCOUT A DEB
国际标识:
1970-067C
轨道中心:
EARTH
物体状态:
在轨
发射日期:
1970-08-27 UTC
轨道信息
数据来源: 国际轨道数据
星历时间: 2026-07-14T11:07:34+0800
半长轴: 7163.616km
偏心率: 0.0020377
轨道倾角: 89.951°
近地点辐角: 220.688°
升交点赤经: 251.006°
平近点角: 139.279°
近地点: 770.881km
远地点: 800.077km
周期: 100.568分钟
每日圈数: 14.318725
详细信息
发射场:
AFWTR
轨道高度:
LEO
数据来源:
AOE Integration Group
参考系:
TEME
时间系统:
UTC
历元类型:
SGP4
2D轨道图
3D轨道图
轨道高度分析图
轨道倾角分析图
轨道综合分析图
查看轨道综合分析图